Location: Newark
(6.1731°S, 35.7419°E)
Time: 22:25:46
(UTC+00:00)

Altair - Pass Details

Date: 27 February 2020
Orbit: 1501 x 1682 km, 47.2° (Epoch: 05 April)

Event Time Altitude Azimuth Distance (km) Brightness Sun altitude
Rises 17:24:39 0° 219° (SW) 4,678 10.8 -22.3°
Reaches altitude 10° 17:27:43 10° 217° (SW) 3,679 10.1 -23.1°
Maximum altitude 17:36:58 82° 130° (SE) 1,516 7.3 -25.3°
Enters shadow 17:40:46 41° 48° (NE) 2,058 7.7 -26.3°
